924  
ASUS41 KLWX 151511  
RWRLWX  
 
REGIONAL WEATHER ROUNDUP  
NATIONAL WEATHER SERVICE BALTIMORE MD/WASHINGTON DC  
1100 AM EDT WED AUG 15 2018  
 
NOTE: "FAIR" INDICATES FEW OR NO CLOUDS BELOW 12,000 FEET  
WITH NO SIGNIFICANT WEATHER AND/OR S TO VISIBILITY
.  
TC=TEMPERATURE CELSIUS  
 
* =NON NWS SITE. STATION DOES NOT REPORT PRECIPITATION (E.G. RAIN,  
SNOW, ETC.), THUNDER, OR FOG.
 
 
DCZ001-MDZ009-015-VAZ040>042-051-053>054-151600-  
WASHINGTON METRO  
 
CITY SKY/WX TMP DP RH WIND PRES REMARKS
 
WASHINGTON NAT FAIR 85 67 54 VRB7 30.04R  
DULLES FAIR 83 68 60 NW9 30.05S  
ANDREWS AFB FAIR 83 66 56 W10 30.04R  
FT BELVOIR FAIR 84 69 60 W7 30.04S  
QUANTICO FAIR 84 70 62 VRB3 30.05S  
COLLEGE PARK* FAIR 80 67 64 W7 30.03S  
LEESBURG* FAIR 82 70 65 NW9 30.06S  
MANASSAS* FAIR 84 70 62 VRB7 30.06R  
GAITHERSBURG* FAIR 79 69 71 W10 30.07R  
 

 
 
MDZ006>007-011-014-151600-  
BALTIMORE METRO  
 
CITY SKY/WX TMP DP RH WIND PRES REMARKS
 
BWI AIRPORT PTSUNNY 83 67 58 NW7G18 30.01S  
MD SCIENCE CTR N/A 86 66 51 MISG 30.03F  
MARTIN STATE PTSUNNY 84 72 65 NW10 30.02R  
ANNAPOLIS FAIR 85 69 58 NW6 30.02R  
FORT MEADE* FAIR 81 70 69 W7 30.05S  
 

 
 
MDZ012-015-019>023-151600-  
MARYLAND EASTERN SHORE  
 
CITY SKY/WX TMP DP RH WIND PRES REMARKS
 
OCEAN CITY FAIR 83 70 64 W9 30.02R  
SALISBURY FAIR 83 72 69 W8 30.02R  
BAY BRIDGE AP* FAIR 82 70 65 W7 30.02S  
CAMBRIDGE* SUNNY 82 70 65 W7 30.03R  
EASTON* SUNNY 82 70 65 NW9 30.05S  
 

 
 
MDZ017>025-151600-  
SOUTHERN MARYLAND  
 
CITY SKY/WX TMP DP RH WIND PRES REMARKS
 
PATUXENT RIVER FAIR 86 70 58 NW9 30.03R HX 90  
ST INIGOES FAIR 82 69 64 W8 30.03S  
LEONARDTOWN* FAIR 81 68 65 W7 30.06R  
 

 
 
MDZ003>005-151600-  
NORTH CENTRAL MARYLAND  
 
CITY SKY/WX TMP DP RH WIND PRES REMARKS
 
FREDERICK* SUNNY 82 66 57 W10 30.07R  
HAGERSTOWN APT FAIR 79 68 69 W7 30.05R  
WESTMINSTER* FAIR 79 64 61 W7 30.05R  
 

 
 
MDZ501>502-151600-  
WESTERN MARYLAND  
 
CITY SKY/WX TMP DP RH WIND PRES REMARKS
 
OAKLAND* FAIR 70 63 78 W6 30.18R  
CUMBERLAND* FAIR 75 72 88 CALM 30.11S  
 

 
 
VAZ025>031-151600-  
SHENANDOAH VALLEY  
 
CITY SKY/WX TMP DP RH WIND PRES REMARKS
 
WINCHESTER* FAIR 79 66 65 W8 30.08S  
FRONT ROYAL* FAIR 79 70 73 SE3 30.07S  
LURAY* FAIR 79 64 61 S5 30.10S  
NEW MARKET* FAIR 79 64 59 SW3 30.09S  
STAUNTON* FAIR 76 66 69 S3 30.14S  
WAYNESBORO* FAIR 78 67 67 W5 30.14R  
 

 
 
WVZ021-048>050-054>055-151600-  
EASTERN WEST VIRGINIA PANHANDLE  
 
CITY SKY/WX TMP DP RH WIND PRES REMARKS
 
MARTINSBURG FAIR 80 68 66 W6 30.05R  
PETERSBURG* FAIR 80 66 63 CALM 30.09S  
 

 
 
VAZ036>039-050-151600-  
CENTRAL FOOTHILLS  
 
CITY SKY/WX TMP DP RH WIND PRES REMARKS
 
CHARLOTTESVILL FAIR 83 67 58 W5 30.09R  
CULPEPER* FAIR 83 67 58 CALM 30.07S  
ORANGE* FAIR 81 68 65 W6 30.08R  
GORDONSVILLE* FAIR 82 67 60 CALM 30.08R  
WARRENTON* FAIR 85 65 51 NW7 30.06R  
 

 
 
VAZ055>057-151600-  
NORTH AND CENTRAL PIEDMONT  
 
CITY SKY/WX TMP DP RH WIND PRES REMARKS
 
FREDERICKSBRG* FAIR 84 70 64 W6 30.05S  
STAFFORD* FAIR 83 69 62 NW8 30.10R  
 

 
 
NCZ024-NYZ072-PAZ021-071-VAZ022-071-151600-  
OTHER REGIONAL OBSERVATIONS  
 
CITY SKY/WX TMP DP RH WIND PRES REMARKS
 
NEW YORK CITY FAIR 80 67 64 VRB6 29.94R  
PHILADELPHIA FAIR 82 66 58 W9 29.97R  
PITTSBURGH CLOUDY 77 70 79 W6 30.07S  
ROANOKE FAIR 78 64 61 NW3 30.15S  
RICHMOND FAIR 84 67 56 VRB3 30.07R  
RALEIGH FAIR 84 68 58 CALM 30.10R  
 

 
 
ANZ530>537-151600-  
MARINE OBSERVATIONS  
 
STATION/POSITION TIME TEMP WIND PRES
 
AIR SEA DIR/SP/G  
(UTC) (F) (DEG/KT/KT) (MB)  
THOMAS PT LIGHT 1500 80 81 290/ 8/ 9 1017.5R  
BALT KEY BRIDGE 1436 81 270/ 8/ 9 1016.0R  
COVE POINT 1436 80 300/ 7/ 11 1017.5R  
LEWISETTA 1436 81 82 320/ 6/ 9 1017.2R  
SOLOMONS ISLAND 1436 81 83 290/ 6/ 8 1016.9R  
PINEY POINT 1442 310/ 7/ 8 N/A  
 

 
 
 
 
CLICK HERE TO GO TO PREVIOUS BULLETINS.

The Nexlab VA Page
The Nexlab MD Page
The Nexlab WV Page Main Text Page